Buffalo, NY

7:57 AM EST on November 12, 2019 (GMT -0500)
Buffalo Niagara International

Weather History for KBUF - October, 2019

Change the Weather History Date:

Sunday, October 20, 2019

  Actual Average Record
Temperature  
Mean Temperature 53 °F 49 °F  
Max Temperature 66 °F 57 °F 77 °F (1963)
Min Temperature 40 °F 41 °F 23 °F (1972)
Degree Days  
Heating Degree Days 12 16  
Month to date heating degree days 252 250  
Since 1 July heating degree days 297 412  
Cooling Degree Days 0 0  
Month to date cooling degree days 7 0  
Year to date cooling degree days 604 540  
Growing Degree Days 2 (Base 50)    
Moisture  
Dew Point 41 °F    
Average Humidity 66    
Maximum Humidity 89    
Minimum Humidity 43    
Precipitation  
Precipitation 0.00 in 0.10 in 2.45 in (1873)
Month to date precipitation 2.67 2.32  
Year to date precipitation 37.32 31.38  
Snow  
Snow 0.00 in 0.00 in 0.60 in (1992)
Month to date snowfall 0.0 0.4  
Since 1 July snowfall 0.0 0.4  
Since 1 September snowfall 0.0 0.4  
Snow Depth 0.00 in    
Sea Level Pressure  
Sea Level Pressure 29.92 in    
Wind  
Wind Speed 5 mph (South)    
Max Wind Speed 10 mph    
Max Gust Speed 13 mph    
Visibility 10 miles    
Events      
T = Trace of Precipitation, MM = Missing Value Source: NWS Daily Summary

Daily Weather History Graph

Daily Weather History Graph

Search for Another Location

Airport or City:

Astronomy

Oct. 20, 2019 Rise Set
Actual Time 7:34 AM EDT 6:24 PM EDT
Civil Twilight 7:05 AM EDT 6:53 PM EDT
Nautical Twilight 6:32 AM EDT 7:26 PM EDT
Astronomical Twilight 5:59 AM EDT 7:59 PM EDT
Moon 11:25 PM EDT (10/20) 2:06 PM EDT (10/20)
Length of Visible Light 11h 48m
Length of Day
10h 50m
Waning Gibbous, 59% of the Moon is Illuminated
Oct 20
Waning Gibbous
Oct 21
Last Quarter
Oct 27
New
Nov 4
First Quarter
Nov 12
Full

Hourly Weather History & Observations

Time (EDT) Temp. Windchill Dew Point Humidity Pressure Visibility Wind Dir Wind Speed Gust Speed Precip Events Conditions
12:54 AM 45.0 °F 42.6 °F 37.9 °F 76% 29.91 in 10.0 mi SE 4.6 mph - N/A   Mostly Cloudy
1:54 AM 46.0 °F - 37.0 °F 71% 29.90 in 10.0 mi Calm Calm - N/A   Mostly Cloudy
2:54 AM 44.1 °F 40.8 °F 37.9 °F 79% 29.89 in 10.0 mi SSE 5.8 mph - N/A   Mostly Cloudy
3:54 AM 42.1 °F 40.2 °F 37.9 °F 85% 29.88 in 10.0 mi SSE 3.5 mph - N/A   Mostly Cloudy
4:54 AM 43.0 °F 40.3 °F 37.9 °F 82% 29.88 in 10.0 mi SSE 4.6 mph - N/A   Mostly Cloudy
5:54 AM 42.1 °F 38.4 °F 37.9 °F 85% 29.88 in 10.0 mi SSE 5.8 mph - N/A   Mostly Cloudy
6:54 AM 43.0 °F 39.5 °F 39.0 °F 86% 29.88 in 10.0 mi SSE 5.8 mph - N/A   Mostly Cloudy
7:54 AM 43.0 °F 40.3 °F 39.0 °F 86% 29.90 in 10.0 mi South 4.6 mph - N/A   Mostly Cloudy
8:54 AM 44.1 °F 40.1 °F 39.9 °F 85% 29.91 in 10.0 mi SE 6.9 mph - N/A   Mostly Cloudy
9:54 AM 46.9 °F - 41.0 °F 80% 29.91 in 10.0 mi SE 5.8 mph - N/A   Mostly Cloudy
10:54 AM 52.0 °F - 43.0 °F 71% 29.92 in 10.0 mi South 4.6 mph - N/A   Mostly Cloudy
11:54 AM 59.0 °F - 44.1 °F 58% 29.92 in 10.0 mi SW 8.1 mph - N/A   Scattered Clouds
12:54 PM 62.1 °F - 43.0 °F 50% 29.92 in 10.0 mi WSW 6.9 mph - N/A   Mostly Cloudy
1:54 PM 64.0 °F - 43.0 °F 46% 29.91 in 10.0 mi West 6.9 mph - N/A   Scattered Clouds
2:54 PM 64.9 °F - 42.1 °F 43% 29.91 in 10.0 mi SW 8.1 mph - N/A   Mostly Cloudy
3:54 PM 64.9 °F - 41.0 °F 42% 29.92 in 10.0 mi WSW 4.6 mph - N/A   Scattered Clouds
4:54 PM 64.9 °F - 42.1 °F 43% 29.93 in 10.0 mi WNW 5.8 mph - N/A   Partly Cloudy
5:54 PM 62.1 °F - 43.0 °F 50% 29.94 in 10.0 mi WSW 3.5 mph - N/A   Partly Cloudy
6:54 PM 60.1 °F - 41.0 °F 49% 29.94 in 10.0 mi Calm Calm - N/A   Partly Cloudy
7:54 PM 53.1 °F - 44.1 °F 71% 29.96 in 10.0 mi NNE 4.6 mph - N/A   Partly Cloudy
8:54 PM 53.1 °F - 46.0 °F 77% 29.97 in 10.0 mi NE 3.5 mph - N/A   Clear
9:54 PM 50.0 °F - 45.0 °F 83% 29.98 in 10.0 mi East 3.5 mph - N/A   Clear
10:54 PM 48.9 °F - 44.1 °F 83% 30.00 in 10.0 mi Calm Calm - N/A   Clear
11:54 PM 46.9 °F - 43.0 °F 86% 30.01 in 10.0 mi ESE 4.6 mph - N/A   Clear